Find Starlink 5317

NORAD ID: 55283 Int'l Des: 2023-010 Owner: SPXS Country: US Constellation: starlink operational
LEOCIRCULAR

实时位置

正在加载3D地球...

关于 Starlink 5317

正在加载描述...

即将过境

Passes for default location (London). Set your location on the main map for personalized predictions.

高度历史

Loading altitude history...

两行轨道根数

1 55283U 23010Q 26127.08222560 -.00000466 00000-0 -31225-4 0 9997
2 55283 70.0002 257.1793 0002998 270.8255 89.2561 14.98327086181521
Epoch: May 7, 2026 • Age: 15 hours

当前状态

高度 577.5 km
速度 7.57 km/s
星下点 35.25°N, 60.17°W
发射日期 Jan 19, 2023
运行时间 3.2 years
类型 internet

技术详情

分类 Payload
质量 305.00 kg
干质量 290.00 kg
总质量 305.00 kg
长度 0.20 m
直径 2.80 m
跨度 9.00 m
形状 Box + pan
制造商 SPXS
平台类型 Starlink
阶段状态 In Orbit
所有者/国家 SPXS/US

Most Searched